Nome, AK

6:01 PM AKDT on June 28, 2017 (GMT -0800)
Nome

Weather History for PAOM - May, 2014

Change the Weather History Date:

Sunday, May 18, 2014

  Actual Average Record
Temperature  
Mean Temperature 37 °F 38 °F  
Max Temperature 44 °F 44 °F 63 °F (2012)
Min Temperature 30 °F 32 °F 8 °F (1920)
Degree Days  
Heating Degree Days 28 27  
Month to date heating degree days 580 558  
Since 1 July heating degree days 11446 12868  
Cooling Degree Days 0 0  
Month to date cooling degree days 0 0  
Year to date cooling degree days 0 0  
Moisture  
Dew Point 28 °F    
Average Humidity 0    
Maximum Humidity 0    
Minimum Humidity 0    
Precipitation  
Precipitation 0.00 in 0.03 in 0.44 in (1916)
Month to date precipitation 0.52 0.50  
Year to date precipitation 3.67 3.78  
Snow  
Snow 0.00 in 0.00 in 1.30 in (1965)
Month to date snowfall 2.3 1.8  
Since 1 July snowfall 72.0 74.9  
Snow Depth 0.00 in    
Sea Level Pressure  
Sea Level Pressure 30.25 in    
Wind  
Wind Speed 9 mph (WNW)    
Max Wind Speed 17 mph    
Max Gust Speed 20 mph    
Visibility 10 miles    
Events      
T = Trace of Precipitation, MM = Missing Value Source: NWS Daily Summary

Daily Weather History Graph

Daily Weather History Graph

Search for Another Location

Airport or City:

Trip Planner

Search our weather history database for the weather conditions in past years. The results will help you decide how hot, cold, wet, or windy it might be!

Date:

Astronomy

May. 18, 2014 Rise Set
Actual Time 5:32 AM AKDT 12:27 AM AKDT
Civil Twilight 3:30 AM AKDT 2:25 AM AKDT
Nautical Twilight Sun does not set Sun does not set
Astronomical Twilight Sun does not set Sun does not set
Moon 3:11 AM AKDT (5/18) 10:03 AM AKDT (5/18)
Length of Visible Light 22h 55m
Length of Day
18h 55m
Waning Gibbous, 79% of the Moon is Illuminated
May 18
Waning Gibbous
May 21
Last Quarter
May 28
New
Jun 5
First Quarter
Jun 12
Full

Hourly Weather History & Observations

Time (AKDT) Temp. Windchill Dew Point Humidity Pressure Visibility Wind Dir Wind Speed Gust Speed Precip Events Conditions
12:53 AM 32.0 °F 24.2 °F 27.0 °F 82% 30.24 in 10.0 mi WNW 9.2 mph - N/A   Partly Cloudy
1:53 AM 30.9 °F 26.2 °F 27.0 °F 85% 30.24 in 10.0 mi WNW 4.6 mph - N/A   Mostly Cloudy
2:53 AM 33.1 °F 26.1 °F 28.0 °F 82% 30.24 in 10.0 mi WNW 8.1 mph - N/A   Overcast
3:53 AM 33.1 °F 26.9 °F 27.0 °F 78% 30.23 in 10.0 mi West 6.9 mph - N/A   Overcast
4:53 AM 32.0 °F 24.8 °F 27.0 °F 82% 30.24 in 10.0 mi WNW 8.1 mph - N/A   Overcast
5:53 AM 33.1 °F 26.9 °F 28.0 °F 82% 30.24 in 10.0 mi WNW 6.9 mph - N/A   Mostly Cloudy
6:44 AM 33.1 °F 28.7 °F 28.0 °F 82% 30.23 in 10.0 mi WNW 4.6 mph - N/A   Mostly Cloudy
6:53 AM 33.1 °F 28.7 °F 28.0 °F 82% 30.23 in 10.0 mi West 4.6 mph - N/A   Mostly Cloudy
7:53 AM 32.0 °F 26.4 °F 28.9 °F 88% 30.23 in 10.0 mi WNW 5.8 mph - N/A   Mostly Cloudy
8:53 AM 35.1 °F 31.0 °F 27.0 °F 72% 30.23 in 10.0 mi NW 4.6 mph - N/A   Mostly Cloudy
9:53 AM 35.1 °F 28.6 °F 28.0 °F 76% 30.24 in 10.0 mi WNW 8.1 mph - N/A   Overcast
10:53 AM 37.0 °F 31.6 °F 25.0 °F 62% 30.25 in 10.0 mi NW 6.9 mph - N/A   Overcast
11:22 AM 36.0 °F 29.6 °F 28.9 °F 76% 30.25 in 10.0 mi West 8.1 mph - N/A   Overcast
11:53 AM 34.0 °F 27.2 °F 30.9 °F 89% 30.25 in 10.0 mi West 8.1 mph - N/A   Overcast
12:53 PM 36.0 °F 27.5 °F 30.9 °F 82% 30.26 in 10.0 mi West 12.7 mph - N/A   Overcast
1:53 PM 36.0 °F 27.1 °F 30.9 °F 82% 30.27 in 10.0 mi West 13.8 mph - N/A   Overcast
2:53 PM 34.0 °F 24.2 °F 30.9 °F 89% 30.27 in 10.0 mi WSW 15.0 mph - N/A   Overcast
3:53 PM 36.0 °F 27.5 °F 32.0 °F 86% 30.27 in 10.0 mi West 12.7 mph - N/A   Overcast
4:53 PM 39.0 °F 32.3 °F 30.9 °F 73% 30.26 in 10.0 mi WSW 10.4 mph - N/A   Overcast
5:53 PM 43.0 °F 36.4 °F 25.0 °F 49% 30.27 in 10.0 mi NW 12.7 mph - N/A   Overcast
6:53 PM 43.0 °F 36.4 °F 26.1 °F 51% 30.27 in 10.0 mi NW 12.7 mph - N/A   Mostly Cloudy
7:53 PM 44.1 °F 38.6 °F 26.1 °F 49% 30.27 in 10.0 mi NW 10.4 mph - N/A   Mostly Cloudy
8:53 PM 43.0 °F 37.2 °F 26.1 °F 51% 30.27 in 10.0 mi North 10.4 mph - N/A   Scattered Clouds
9:53 PM 41.0 °F 34.7 °F 26.1 °F 55% 30.26 in 10.0 mi NNW 10.4 mph - N/A   Mostly Cloudy
10:53 PM 39.0 °F 33.4 °F 28.9 °F 67% 30.27 in 10.0 mi NW 8.1 mph - N/A   Scattered Clouds
11:53 PM 36.0 °F 29.6 °F 28.9 °F 76% 30.28 in 10.0 mi WNW 8.1 mph - N/A   Partly Cloudy